Hourly Data Report for October 19, 2015

All times are specified in Local Standard Time (LST). Add 1 hour to adjust for Daylight Saving Time where and when it is observed.

RESOLUTE BAY A
NUNAVUT

74°43'01.000" N
94°58'10.000" W
67.70 m
2403498
71924
YRB

Download Data

Hourly Data (October 2015)
Hourly Data Report for October 19, 2015
Temp Definition
°C
Dew Point Temp Definition
°C
Rel Hum Definition
%
Wind Dir Definition
10's deg

Wind Spd Definition
km/h
Visibility Definition
km
Stn Press Definition
kPa
Hmdx Definition


Wind Chill Definition


Weather Definition


TIME
00:00 Legend Double Dagger -16.7 -18.5 86 35 15 8.1 100.67   -25 Snow,Fog
01:00 Legend Double Dagger -16.2 -17.9 87 3 9 4.8 100.70   -22 Freezing Fog
02:00 Legend Double Dagger -16.5 -18.3 86 33 6 3.2 100.73   -21 Freezing Fog
03:00 Legend Double Dagger -17.4 -19.4 85 3 14 3.2 100.74   -26 Freezing Fog
04:00 Legend Double Dagger -18.8 -20.9 84 4 19 9.7 100.74   -29 LegendNANA
05:00 Legend Double Dagger -19.5 -21.7 83 4 21 16.1 100.74   -30 LegendNANA
06:00 Legend Double Dagger -19.4 -21.6 83 5 18 16.1 100.75   -29 Mainly Clear
07:00 Legend Double Dagger -19.9 -22.2 82 24 3 24.1 100.75   -22 LegendNANA
08:00 Legend Double Dagger -19.3 -21.5 83 1 6 24.1 100.75   -24 LegendNANA
09:00 Legend Double Dagger -18.4 -20.3 85 4 19 24.1 100.74   -28 Cloudy
10:00 Legend Double Dagger -16.8 -18.8 85 36 1 0.4 100.71   -18 Freezing Fog
11:00 Legend Double Dagger -15.4 -17.2 86 12 6 0.8 100.69   -20 Freezing Fog
12:00 Legend Double Dagger -14.8 -16.5 87 15 10 8.1 100.67   -21 Snow,Fog
13:00 Legend Double Dagger -13.6 -15.2 88 24 10 6.4 100.67   -20 Snow,Fog
14:00 Legend Double Dagger -13.8 -15.4 88 23 11 12.9 100.64   -20 Snow
15:00 Legend Double Dagger -13.6 -15.2 88 24 16 16.1 100.62   -21 Snow
16:00 Legend Double Dagger -14.1 -15.8 87 22 14 9.7 100.61   -22 Snow
17:00 Legend Double Dagger -14.6 -16.3 87 22 18 8.1 100.58   -23 Snow
18:00 Legend Double Dagger -15.8 -17.6 86 21 16 16.1 100.54   -24 Snow
19:00 Legend Double Dagger -15.4 -17.2 86 21 21 16.1 100.49   -25 Snow
20:00 Legend Double Dagger -15.3 -17.1 86 21 21 16.1 100.43   -25 Snow
21:00 Legend Double Dagger -15.1 -16.8 87 20 20 16.1 100.36   -24 Snow
22:00 Legend Double Dagger -14.6 -16.3 87 20 19 16.1 100.30   -23 Snow
23:00 Legend Double Dagger -14.4 -16.1 87 21 23 16.1 100.24   -24 Snow

Notes on Data Quality.

Legend

  • E = Estimated
  • M = Missing
  • NA = Not Available
  • ‡ = Partner data that is not subject to review by the National Climate Archives
Date modified: